When you browse on this site, cookies collect data to enhance your experience and personalize the content and advertising you see.
Visit our Privacy Policy to learn more. By continuing to use the site, you agree to this use of cookies and data.
  • In Hungary
  • List of Countries
  • For 7 days
  • Water Temperature
  • Satellite Maps
  • Weather Map
  • News
  • Weather Widgets
  • user-avatar
    Login

    Hourly Weather Sama

    Today, 20 January, Sunday

    Time Temperature Precipitation Wind Pressure Humidity
    00:00 +7°C° 0 mm 1 mps 729 mmHg 98%
    01:00 +8°C° 1.2 mm 1 mps 729 mmHg 98%
    02:00 +7°C° 1.2 mm 2 mps 729 mmHg 97%
    03:00 +7°C° 1.2 mm 2 mps 730 mmHg 96%
    04:00 +6°C° 0.5 mm 2 mps 730 mmHg 96%
    05:00 +6°C° 0.5 mm 2 mps 731 mmHg 96%
    06:00 +6°C° 0.5 mm 1 mps 731 mmHg 96%
    07:00 +7°C° 0.3 mm 1 mps 732 mmHg 95%
    08:00 +7°C° 0.3 mm 1 mps 732 mmHg 94%
    09:00 +7°C° 0.3 mm 1 mps 732 mmHg 94%
    10:00 +8°C° 0.4 mm 1 mps 733 mmHg 93%
    11:00 +7°C° 0.4 mm 2 mps 733 mmHg 92%
    12:00 +8°C° 0.4 mm 2 mps 733 mmHg 92%
    13:00 +8°C° 0.6 mm 2 mps 734 mmHg 92%
    14:00 +8°C° 0.6 mm 2 mps 734 mmHg 91%
    15:00 +8°C° 0.6 mm 2 mps 734 mmHg 91%
    16:00 +7°C° 0.8 mm 2 mps 734 mmHg 93%
    17:00 +8°C° 0.8 mm 1 mps 735 mmHg 95%
    18:00 +7°C° 0.8 mm 1 mps 735 mmHg 96%
    19:00 +7°C° 0.7 mm 1 mps 736 mmHg 97%
    20:00 +7°C° 0.7 mm 1 mps 736 mmHg 97%
    21:00 +7°C° 0.7 mm 1 mps 737 mmHg 97%
    22:00 +7°C° 0.5 mm 1 mps 737 mmHg 97%
    23:00 +7°C° 0.5 mm 1 mps 737 mmHg 97%

    Tomorrow, 21 January, Monday

    Time Temperature Precipitation Wind Pressure Humidity
    00:00 +7°C° 0.5 mm 1 mps 737 mmHg 97%
    01:00 +6°C° 0.3 mm 1 mps 737 mmHg 97%
    02:00 +6°C° 0.3 mm 1 mps 738 mmHg 97%
    03:00 +6°C° 0.3 mm 1 mps 738 mmHg 97%
    04:00 +5°C° 0.2 mm 1 mps 738 mmHg 97%
    05:00 +5°C° 0.2 mm 1 mps 738 mmHg 97%
    06:00 +5°C° 0.2 mm 1 mps 738 mmHg 97%
    07:00 +5°C° 0 mm 1 mps 738 mmHg 96%
    08:00 +5°C° 0 mm 1 mps 739 mmHg 95%
    09:00 +6°C° 0 mm 1 mps 739 mmHg 94%
    10:00 +7°C° 0 mm 1 mps 739 mmHg 90%
    11:00 +7°C° 0 mm 1 mps 739 mmHg 86%
    12:00 +8°C° 0 mm 1 mps 739 mmHg 82%
    13:00 +9°C° 0 mm 1 mps 739 mmHg 79%
    14:00 +9°C° 0 mm 1 mps 739 mmHg 75%
    15:00 +9°C° 0 mm 1 mps 738 mmHg 72%
    16:00 +8°C° 0 mm 1 mps 739 mmHg 78%
    17:00 +6°C° 0 mm 1 mps 739 mmHg 85%
    18:00 +5°C° 0 mm 1 mps 739 mmHg 91%
    19:00 +4°C° 0 mm 1 mps 739 mmHg 90%
    20:00 +4°C° 0 mm 1 mps 739 mmHg 89%
    21:00 +4°C° 0 mm 1 mps 738 mmHg 88%
    22:00 +4°C° 0 mm 1 mps 738 mmHg 84%
    23:00 +3°C° 0 mm 2 mps 738 mmHg 80%

    Day after tomorrow, 22 January, Tuesday

    Time Temperature Precipitation Wind Pressure Humidity
    00:00 +3°C° 0 mm 2 mps 738 mmHg 76%
    01:00 +3°C° 0 mm 2 mps 737 mmHg 74%
    02:00 +4°C° 0 mm 2 mps 737 mmHg 72%
    03:00 +4°C° 0 mm 2 mps 736 mmHg 70%
    04:00 +5°C° 0.2 mm 2 mps 735 mmHg 73%
    05:00 +5°C° 0.2 mm 2 mps 735 mmHg 77%
    06:00 +5°C° 0.2 mm 2 mps 734 mmHg 80%
    07:00 +6°C° 0.6 mm 2 mps 734 mmHg 84%
    08:00 +6°C° 0.6 mm 2 mps 734 mmHg 87%
    09:00 +7°C° 0.6 mm 3 mps 733 mmHg 91%
    10:00 +7°C° 1.1 mm 3 mps 733 mmHg 91%
    11:00 +5°C° 1.1 mm 3 mps 733 mmHg 92%
    12:00 +5°C° 1.1 mm 4 mps 733 mmHg 93%
    13:00 +5°C° 2.2 mm 4 mps 733 mmHg 93%
    14:00 +5°C° 2.2 mm 5 mps 732 mmHg 93%
    15:00 +5°C° 2.2 mm 5 mps 732 mmHg 94%
    16:00 +3°C° 1.8 mm 5 mps 732 mmHg 93%
    17:00 +3°C° 1.8 mm 5 mps 732 mmHg 93%
    18:00 +3°C° 1.8 mm 5 mps 732 mmHg 93%
    19:00 +3°C° 2.1 mm 5 mps 733 mmHg 93%
    20:00 +3°C° 2.1 mm 5 mps 733 mmHg 93%
    21:00 +3°C° 2.1 mm 5 mps 733 mmHg 93%
    22:00 +3°C° 2.3 mm 5 mps 733 mmHg 94%
    23:00 +3°C° 2.3 mm 5 mps 733 mmHg 94%

    23 January, Wednesday

    Time Temperature Precipitation Wind Pressure Humidity
    00:00 +4°C° 2.3 mm 4 mps 733 mmHg 95%
    01:00 +4°C° 2 mm 4 mps 732 mmHg 96%
    02:00 +4°C° 2 mm 4 mps 732 mmHg 96%
    03:00 +4°C° 2 mm 3 mps 731 mmHg 97%
    04:00 +5°C° 4.6 mm 4 mps 731 mmHg 97%
    05:00 +6°C° 4.6 mm 5 mps 730 mmHg 97%
    06:00 +7°C° 4.6 mm 6 mps 729 mmHg 97%
    07:00 +7°C° 4.5 mm 6 mps 730 mmHg 96%
    08:00 +7°C° 4.5 mm 6 mps 730 mmHg 96%
    09:00 +7°C° 4.5 mm 6 mps 730 mmHg 96%
    10:00 +7°C° 4.8 mm 6 mps 730 mmHg 96%
    11:00 +7°C° 4.8 mm 5 mps 730 mmHg 97%
    12:00 +7°C° 4.8 mm 5 mps 731 mmHg 97%
    13:00 +7°C° 4.3 mm 5 mps 730 mmHg 97%
    14:00 +7°C° 4.3 mm 5 mps 730 mmHg 97%
    15:00 +8°C° 4.3 mm 5 mps 729 mmHg 97%
    16:00 +8°C° 5.1 mm 5 mps 730 mmHg 98%
    17:00 +8°C° 5.1 mm 4 mps 730 mmHg 98%
    18:00 +8°C° 5.1 mm 4 mps 730 mmHg 98%
    19:00 +8°C° 4.5 mm 4 mps 730 mmHg 98%
    20:00 +8°C° 4.5 mm 4 mps 731 mmHg 98%
    21:00 +8°C° 4.5 mm 5 mps 731 mmHg 98%
    22:00 +8°C° 3.2 mm 4 mps 731 mmHg 98%
    23:00 +8°C° 3.2 mm 4 mps 732 mmHg 98%

    24 January, Thursday

    Time Temperature Precipitation Wind Pressure Humidity
    00:00 +9°C° 3.2 mm 3 mps 732 mmHg 98%
    01:00 +9°C° 1.5 mm 3 mps 732 mmHg 98%
    02:00 +8°C° 1.5 mm 3 mps 732 mmHg 98%
    03:00 +8°C° 1.5 mm 2 mps 732 mmHg 98%
    04:00 +8°C° 0.6 mm 2 mps 732 mmHg 98%
    05:00 +8°C° 0.6 mm 2 mps 732 mmHg 98%
    06:00 +8°C° 0.6 mm 2 mps 732 mmHg 98%
    07:00 +8°C° 0.6 mm 2 mps 733 mmHg 98%
    08:00 +8°C° 0.6 mm 2 mps 733 mmHg 99%
    09:00 +8°C° 0.6 mm 2 mps 734 mmHg 99%
    10:00 +8°C° 0.2 mm 2 mps 734 mmHg 98%
    11:00 +8°C° 0.2 mm 2 mps 734 mmHg 98%
    12:00 +9°C° 0.2 mm 2 mps 734 mmHg 97%
    13:00 +9°C° 0.2 mm 2 mps 734 mmHg 97%
    14:00 +9°C° 0.2 mm 2 mps 734 mmHg 98%
    15:00 +9°C° 0.2 mm 3 mps 733 mmHg 98%
    16:00 +9°C° 0.6 mm 3 mps 734 mmHg 98%
    17:00 +9°C° 0.6 mm 3 mps 734 mmHg 98%
    18:00 +9°C° 0.6 mm 3 mps 734 mmHg 98%
    19:00 +9°C° 0.8 mm 3 mps 734 mmHg 98%
    20:00 +10°C° 0.8 mm 3 mps 735 mmHg 98%
    21:00 +10°C° 0.8 mm 3 mps 735 mmHg 98%
    22:00 +10°C° 0.8 mm 3 mps 735 mmHg 98%
    23:00 +10°C° 0.8 mm 3 mps 735 mmHg 98%

    25 January, Friday

    Time Temperature Precipitation Wind Pressure Humidity
    00:00 +10°C° 0.8 mm 3 mps 736 mmHg 98%
    01:00 +10°C° 0.7 mm 3 mps 736 mmHg 98%
    02:00 +9°C° 0.7 mm 3 mps 736 mmHg 98%
    03:00 +9°C° 0.7 mm 3 mps 736 mmHg 98%
    04:00 +9°C° 0.2 mm 3 mps 736 mmHg 98%
    05:00 +9°C° 0.2 mm 3 mps 736 mmHg 98%
    06:00 +9°C° 0.2 mm 3 mps 736 mmHg 98%
    07:00 +9°C° 0.2 mm 2 mps 737 mmHg 98%
    08:00 +9°C° 0.2 mm 2 mps 737 mmHg 97%
    09:00 +8°C° 0.2 mm 2 mps 738 mmHg 97%
    10:00 +9°C° 0.3 mm 2 mps 738 mmHg 97%
    11:00 +9°C° 0.3 mm 2 mps 738 mmHg 97%
    12:00 +10°C° 0.3 mm 1 mps 738 mmHg 97%
    13:00 +10°C° 0.2 mm 1 mps 738 mmHg 97%
    14:00 +10°C° 0.2 mm 1 mps 738 mmHg 97%
    15:00 +10°C° 0.2 mm 1 mps 738 mmHg 97%
    16:00 +10°C° 0.1 mm 1 mps 738 mmHg 97%
    17:00 +10°C° 0.1 mm 1 mps 739 mmHg 98%
    18:00 +9°C° 0.1 mm 1 mps 739 mmHg 98%
    19:00 +9°C° 0.1 mm 1 mps 739 mmHg 98%
    20:00 +9°C° 0.1 mm 1 mps 740 mmHg 98%
    21:00 +9°C° 0.1 mm 1 mps 740 mmHg 98%
    22:00 +8°C° 0 mm 1 mps 740 mmHg 97%
    23:00 +8°C° 0 mm 1 mps 740 mmHg 97%
    Show more